<?xml version="1.0" encoding="UTF-8" standalone="no" ?>
<gpx xmlns="http://www.topografix.com/GPX/1/1" xmlns:xsi="http://www.w3.org/2001/XMLSchema-instance" xsi:schemaLocation="http://www.topografix.com/GPX/1/1 http://www.topografix.com/GPX/1/1/gpx.xsd" version="1.1" creator="VisuGPX - https://www.visugpx.com">
  <metadata>
    <name>La Montagne de Lachat par le col de barman </name>
    <desc><![CDATA[Accès : se garer dans l'épingle avant le hameau du Paillot

Description : Belle boucle au dessus de Dingy Saint Clair. Panorama magnifique du Parmelan à la Tournette, en passant par les bauges, un bout du lac d'Annecy, puis le mont Veyrier. 

Au départ de la randonnée, prendre la route de Tappes, direction nord vers La Blonnière. Cette route sans issue laisse place à un chemin de randonnée indiqué par des flèches jaune.
Au niveau de l'église, prendre un chemin de terre sur votre gauche, passer entre les habitations puis suivre le balisage indiquant le col du barman.
Un replat de 500m environ donne suite à une montée en forêt.
Au col Barman, bifurquer à gaucher dans un alpage puis monter dans une forêt, sur la crête bien large (sans difficulté).
Au niveau de la Montagne de Lachat, passer à gauche derrière le belvédère pour redescendre par la forêt. 
Après Gravel, le chemin laisse prendre place à une route de campagne caillouteuse jusqu'au parking.]]></desc>
  </metadata>
  <wpt lat="45.92438" lon="6.22352">
    <ele>780</ele>
    <name><![CDATA[Départ ]]></name>
  </wpt>
  <wpt lat="45.94181" lon="6.22631">
    <ele>942</ele>
    <name><![CDATA[Pré Paget (1040m)]]></name>
  </wpt>
  <wpt lat="45.94129" lon="6.22263">
    <ele>1171</ele>
    <name><![CDATA[Col Barman (1127m)]]></name>
  </wpt>
  <wpt lat="45.93795" lon="6.21752">
    <ele>1251</ele>
    <name><![CDATA[Le cyclope chevelu]]></name>
  </wpt>
  <wpt lat="45.93253" lon="6.21512">
    <ele>1312</ele>
    <name><![CDATA[Montagne de Lachat (1278m)]]></name>
  </wpt>
  <wpt lat="45.92319" lon="6.21263">
    <ele>1160</ele>
    <name><![CDATA[Sur la montagne (1115m)]]></name>
  </wpt>
  <wpt lat="45.9234" lon="6.21698">
    <ele>1000</ele>
    <name><![CDATA[Gravel (930m)]]></name>
  </wpt>
  <wpt lat="45.92429" lon="6.22356">
    <ele>810</ele>
    <name><![CDATA[Parking (arrivée) ]]></name>
  </wpt>
  <trk>
    <name><![CDATA[Randonnée du 02/09/2020 à 08:11]]></name>
    <trkseg>
      <trkpt lat="45.92438" lon="6.22352">
        <ele>780</ele>
        <time>2020-09-02T08:13:20+02:00</time>
      </trkpt>
      <trkpt lat="45.92458" lon="6.22369">
        <ele>793</ele>
        <time>2020-09-02T08:13:20+02:00</time>
      </trkpt>
      <trkpt lat="45.92479" lon="6.22384">
        <ele>794</ele>
        <time>2020-09-02T08:13:20+02:00</time>
      </trkpt>
      <trkpt lat="45.92501" lon="6.22368">
        <ele>795</ele>
        <time>2020-09-02T08:13:20+02:00</time>
      </trkpt>
      <trkpt lat="45.92519" lon="6.22389">
        <ele>797</ele>
        <time>2020-09-02T08:15:28+02:00</time>
      </trkpt>
      <trkpt lat="45.92566" lon="6.22463">
        <ele>790</ele>
        <time>2020-09-02T08:15:28+02:00</time>
      </trkpt>
      <trkpt lat="45.92612" lon="6.22449">
        <ele>813</ele>
        <time>2020-09-02T08:15:28+02:00</time>
      </trkpt>
      <trkpt lat="45.92634" lon="6.22457">
        <ele>819</ele>
        <time>2020-09-02T08:15:28+02:00</time>
      </trkpt>
      <trkpt lat="45.92652" lon="6.22479">
        <ele>836</ele>
        <time>2020-09-02T08:15:28+02:00</time>
      </trkpt>
      <trkpt lat="45.92675" lon="6.22484">
        <ele>838</ele>
        <time>2020-09-02T08:17:36+02:00</time>
      </trkpt>
      <trkpt lat="45.92698" lon="6.22485">
        <ele>834</ele>
        <time>2020-09-02T08:17:36+02:00</time>
      </trkpt>
      <trkpt lat="45.92722" lon="6.22482">
        <ele>838</ele>
        <time>2020-09-02T08:17:36+02:00</time>
      </trkpt>
      <trkpt lat="45.92744" lon="6.22489">
        <ele>845</ele>
        <time>2020-09-02T08:17:36+02:00</time>
      </trkpt>
      <trkpt lat="45.92765" lon="6.22504">
        <ele>848</ele>
        <time>2020-09-02T08:17:36+02:00</time>
      </trkpt>
      <trkpt lat="45.92787" lon="6.2251">
        <ele>851</ele>
        <time>2020-09-02T08:17:36+02:00</time>
      </trkpt>
      <trkpt lat="45.942" lon="6.2262">
        <ele>912</ele>
        <time>2020-09-02T08:38:56+02:00</time>
      </trkpt>
      <trkpt lat="45.94149" lon="6.22672">
        <ele>927</ele>
        <time>2020-09-02T08:38:56+02:00</time>
      </trkpt>
      <trkpt lat="45.94181" lon="6.22631">
        <ele>942</ele>
        <time>2020-09-02T08:38:56+02:00</time>
      </trkpt>
      <trkpt lat="45.94161" lon="6.22616">
        <ele>1045</ele>
        <time>2020-09-02T08:38:56+02:00</time>
      </trkpt>
      <trkpt lat="45.94179" lon="6.22596">
        <ele>1105</ele>
        <time>2020-09-02T08:38:56+02:00</time>
      </trkpt>
      <trkpt lat="45.94181" lon="6.22563">
        <ele>1111</ele>
        <time>2020-09-02T08:41:04+02:00</time>
      </trkpt>
      <trkpt lat="45.94174" lon="6.22531">
        <ele>1121</ele>
        <time>2020-09-02T08:41:04+02:00</time>
      </trkpt>
      <trkpt lat="45.94177" lon="6.22499">
        <ele>1125</ele>
        <time>2020-09-02T08:41:04+02:00</time>
      </trkpt>
      <trkpt lat="45.94172" lon="6.22467">
        <ele>1123</ele>
        <time>2020-09-02T08:41:04+02:00</time>
      </trkpt>
      <trkpt lat="45.94155" lon="6.22445">
        <ele>1131</ele>
        <time>2020-09-02T08:41:04+02:00</time>
      </trkpt>
      <trkpt lat="45.9414" lon="6.22418">
        <ele>1135</ele>
        <time>2020-09-02T08:41:04+02:00</time>
      </trkpt>
      <trkpt lat="45.94133" lon="6.22386">
        <ele>1140</ele>
        <time>2020-09-02T08:41:04+02:00</time>
      </trkpt>
      <trkpt lat="45.94121" lon="6.22358">
        <ele>1141</ele>
        <time>2020-09-02T08:43:12+02:00</time>
      </trkpt>
      <trkpt lat="45.9411" lon="6.22328">
        <ele>1151</ele>
        <time>2020-09-02T08:43:12+02:00</time>
      </trkpt>
      <trkpt lat="45.94089" lon="6.22314">
        <ele>1152</ele>
        <time>2020-09-02T08:43:12+02:00</time>
      </trkpt>
      <trkpt lat="45.94074" lon="6.22288">
        <ele>1153</ele>
        <time>2020-09-02T08:43:12+02:00</time>
      </trkpt>
      <trkpt lat="45.94092" lon="6.22268">
        <ele>1168</ele>
        <time>2020-09-02T08:45:20+02:00</time>
      </trkpt>
      <trkpt lat="45.94129" lon="6.22263">
        <ele>1171</ele>
        <time>2020-09-02T08:45:20+02:00</time>
      </trkpt>
      <trkpt lat="45.94112" lon="6.22241">
        <ele>1173</ele>
        <time>2020-09-02T08:45:20+02:00</time>
      </trkpt>
      <trkpt lat="45.94091" lon="6.22221">
        <ele>1174</ele>
        <time>2020-09-02T08:45:20+02:00</time>
      </trkpt>
      <trkpt lat="45.9407" lon="6.22207">
        <ele>1175</ele>
        <time>2020-09-02T08:47:28+02:00</time>
      </trkpt>
      <trkpt lat="45.94047" lon="6.22192">
        <ele>1178</ele>
        <time>2020-09-02T08:47:28+02:00</time>
      </trkpt>
      <trkpt lat="45.94026" lon="6.22174">
        <ele>1180</ele>
        <time>2020-09-02T08:47:28+02:00</time>
      </trkpt>
      <trkpt lat="45.94009" lon="6.22153">
        <ele>1183</ele>
        <time>2020-09-02T08:47:28+02:00</time>
      </trkpt>
      <trkpt lat="45.9399" lon="6.22133">
        <ele>1188</ele>
        <time>2020-09-02T08:47:28+02:00</time>
      </trkpt>
      <trkpt lat="45.93968" lon="6.22123">
        <ele>1191</ele>
        <time>2020-09-02T08:47:28+02:00</time>
      </trkpt>
      <trkpt lat="45.93948" lon="6.22107">
        <ele>1194</ele>
        <time>2020-09-02T08:47:28+02:00</time>
      </trkpt>
      <trkpt lat="45.93927" lon="6.22092">
        <ele>1195</ele>
        <time>2020-09-02T08:47:28+02:00</time>
      </trkpt>
      <trkpt lat="45.93908" lon="6.22075">
        <ele>1198</ele>
        <time>2020-09-02T08:49:36+02:00</time>
      </trkpt>
      <trkpt lat="45.93887" lon="6.22054">
        <ele>1203</ele>
        <time>2020-09-02T08:49:36+02:00</time>
      </trkpt>
      <trkpt lat="45.93873" lon="6.22028">
        <ele>1208</ele>
        <time>2020-09-02T08:49:36+02:00</time>
      </trkpt>
      <trkpt lat="45.93862" lon="6.21999">
        <ele>1214</ele>
        <time>2020-09-02T08:49:36+02:00</time>
      </trkpt>
      <trkpt lat="45.93847" lon="6.21972">
        <ele>1212</ele>
        <time>2020-09-02T08:49:36+02:00</time>
      </trkpt>
      <trkpt lat="45.93835" lon="6.21945">
        <ele>1218</ele>
        <time>2020-09-02T08:49:36+02:00</time>
      </trkpt>
      <trkpt lat="45.93822" lon="6.21756">
        <ele>1180</ele>
        <time>2020-09-02T08:53:52+02:00</time>
      </trkpt>
      <trkpt lat="45.93795" lon="6.21752">
        <ele>1251</ele>
        <time>2020-09-02T08:53:52+02:00</time>
      </trkpt>
      <trkpt lat="45.93776" lon="6.21731">
        <ele>1263</ele>
        <time>2020-09-02T08:53:52+02:00</time>
      </trkpt>
      <trkpt lat="45.93756" lon="6.21711">
        <ele>1269</ele>
        <time>2020-09-02T08:53:52+02:00</time>
      </trkpt>
      <trkpt lat="45.93734" lon="6.21703">
        <ele>1272</ele>
        <time>2020-09-02T08:53:52+02:00</time>
      </trkpt>
      <trkpt lat="45.93712" lon="6.21688">
        <ele>1270</ele>
        <time>2020-09-02T08:53:52+02:00</time>
      </trkpt>
      <trkpt lat="45.93689" lon="6.21678">
        <ele>1267</ele>
        <time>2020-09-02T08:53:52+02:00</time>
      </trkpt>
      <trkpt lat="45.93671" lon="6.21657">
        <ele>1266</ele>
        <time>2020-09-02T08:53:52+02:00</time>
      </trkpt>
      <trkpt lat="45.93665" lon="6.21621">
        <ele>1265</ele>
        <time>2020-09-02T08:56:00+02:00</time>
      </trkpt>
      <trkpt lat="45.93656" lon="6.2159">
        <ele>1265</ele>
        <time>2020-09-02T08:56:00+02:00</time>
      </trkpt>
      <trkpt lat="45.93634" lon="6.21578">
        <ele>1269</ele>
        <time>2020-09-02T08:56:00+02:00</time>
      </trkpt>
      <trkpt lat="45.93612" lon="6.2159">
        <ele>1276</ele>
        <time>2020-09-02T08:56:00+02:00</time>
      </trkpt>
      <trkpt lat="45.9359" lon="6.21601">
        <ele>1282</ele>
        <time>2020-09-02T08:56:00+02:00</time>
      </trkpt>
      <trkpt lat="45.93569" lon="6.2161">
        <ele>1292</ele>
        <time>2020-09-02T08:58:08+02:00</time>
      </trkpt>
      <trkpt lat="45.93547" lon="6.21622">
        <ele>1297</ele>
        <time>2020-09-02T08:58:08+02:00</time>
      </trkpt>
      <trkpt lat="45.93253" lon="6.21512">
        <ele>1312</ele>
        <time>2020-09-02T09:02:24+02:00</time>
      </trkpt>
      <trkpt lat="45.9323" lon="6.21519">
        <ele>1317</ele>
        <time>2020-09-02T09:06:40+02:00</time>
      </trkpt>
      <trkpt lat="45.93208" lon="6.21511">
        <ele>1311</ele>
        <time>2020-09-02T09:06:40+02:00</time>
      </trkpt>
      <trkpt lat="45.93185" lon="6.21501">
        <ele>1308</ele>
        <time>2020-09-02T09:06:40+02:00</time>
      </trkpt>
      <trkpt lat="45.93161" lon="6.21498">
        <ele>1306</ele>
        <time>2020-09-02T09:06:40+02:00</time>
      </trkpt>
      <trkpt lat="45.93138" lon="6.2149">
        <ele>1305</ele>
        <time>2020-09-02T09:06:40+02:00</time>
      </trkpt>
      <trkpt lat="45.93117" lon="6.21478">
        <ele>1297</ele>
        <time>2020-09-02T09:06:40+02:00</time>
      </trkpt>
      <trkpt lat="45.93097" lon="6.21459">
        <ele>1293</ele>
        <time>2020-09-02T09:08:48+02:00</time>
      </trkpt>
      <trkpt lat="45.93073" lon="6.21451">
        <ele>1292</ele>
        <time>2020-09-02T09:08:48+02:00</time>
      </trkpt>
      <trkpt lat="45.93049" lon="6.21448">
        <ele>1291</ele>
        <time>2020-09-02T09:08:48+02:00</time>
      </trkpt>
      <trkpt lat="45.93026" lon="6.21438">
        <ele>1288</ele>
        <time>2020-09-02T09:08:48+02:00</time>
      </trkpt>
      <trkpt lat="45.93002" lon="6.21439">
        <ele>1284</ele>
        <time>2020-09-02T09:08:48+02:00</time>
      </trkpt>
      <trkpt lat="45.92361" lon="6.21266">
        <ele>1312</ele>
        <time>2020-09-02T09:15:12+02:00</time>
      </trkpt>
      <trkpt lat="45.92319" lon="6.21263">
        <ele>1160</ele>
        <time>2020-09-02T09:15:12+02:00</time>
      </trkpt>
      <trkpt lat="45.92322" lon="6.21295">
        <ele>1161</ele>
        <time>2020-09-02T09:15:12+02:00</time>
      </trkpt>
      <trkpt lat="45.92334" lon="6.21324">
        <ele>1160</ele>
        <time>2020-09-02T09:15:12+02:00</time>
      </trkpt>
      <trkpt lat="45.92347" lon="6.21351">
        <ele>1160</ele>
        <time>2020-09-02T09:15:12+02:00</time>
      </trkpt>
      <trkpt lat="45.92359" lon="6.21379">
        <ele>1156</ele>
        <time>2020-09-02T09:15:12+02:00</time>
      </trkpt>
      <trkpt lat="45.92367" lon="6.21412">
        <ele>1147</ele>
        <time>2020-09-02T09:15:12+02:00</time>
      </trkpt>
      <trkpt lat="45.92345" lon="6.21424">
        <ele>1139</ele>
        <time>2020-09-02T09:17:20+02:00</time>
      </trkpt>
      <trkpt lat="45.92321" lon="6.21417">
        <ele>1126</ele>
        <time>2020-09-02T09:17:20+02:00</time>
      </trkpt>
      <trkpt lat="45.92297" lon="6.21412">
        <ele>1122</ele>
        <time>2020-09-02T09:17:20+02:00</time>
      </trkpt>
      <trkpt lat="45.92275" lon="6.21413">
        <ele>1118</ele>
        <time>2020-09-02T09:17:20+02:00</time>
      </trkpt>
      <trkpt lat="45.9225" lon="6.21417">
        <ele>1111</ele>
        <time>2020-09-02T09:17:20+02:00</time>
      </trkpt>
      <trkpt lat="45.92226" lon="6.21416">
        <ele>1104</ele>
        <time>2020-09-02T09:17:20+02:00</time>
      </trkpt>
      <trkpt lat="45.92203" lon="6.21417">
        <ele>1099</ele>
        <time>2020-09-02T09:17:20+02:00</time>
      </trkpt>
      <trkpt lat="45.92181" lon="6.2142">
        <ele>1096</ele>
        <time>2020-09-02T09:17:20+02:00</time>
      </trkpt>
      <trkpt lat="45.92201" lon="6.21438">
        <ele>1087</ele>
        <time>2020-09-02T09:17:20+02:00</time>
      </trkpt>
      <trkpt lat="45.9222" lon="6.21456">
        <ele>1082</ele>
        <time>2020-09-02T09:17:20+02:00</time>
      </trkpt>
      <trkpt lat="45.92243" lon="6.2147">
        <ele>1079</ele>
        <time>2020-09-02T09:17:20+02:00</time>
      </trkpt>
      <trkpt lat="45.92266" lon="6.2148">
        <ele>1075</ele>
        <time>2020-09-02T09:17:20+02:00</time>
      </trkpt>
      <trkpt lat="45.92288" lon="6.21492">
        <ele>1073</ele>
        <time>2020-09-02T09:17:20+02:00</time>
      </trkpt>
      <trkpt lat="45.92308" lon="6.21509">
        <ele>1070</ele>
        <time>2020-09-02T09:19:28+02:00</time>
      </trkpt>
      <trkpt lat="45.92325" lon="6.2153">
        <ele>1065</ele>
        <time>2020-09-02T09:19:28+02:00</time>
      </trkpt>
      <trkpt lat="45.92343" lon="6.21554">
        <ele>1062</ele>
        <time>2020-09-02T09:19:28+02:00</time>
      </trkpt>
      <trkpt lat="45.9236" lon="6.21575">
        <ele>1056</ele>
        <time>2020-09-02T09:19:28+02:00</time>
      </trkpt>
      <trkpt lat="45.92382" lon="6.21596">
        <ele>1049</ele>
        <time>2020-09-02T09:19:28+02:00</time>
      </trkpt>
      <trkpt lat="45.92402" lon="6.21611">
        <ele>1044</ele>
        <time>2020-09-02T09:19:28+02:00</time>
      </trkpt>
      <trkpt lat="45.92424" lon="6.21624">
        <ele>1040</ele>
        <time>2020-09-02T09:19:28+02:00</time>
      </trkpt>
      <trkpt lat="45.92436" lon="6.21654">
        <ele>1033</ele>
        <time>2020-09-02T09:19:28+02:00</time>
      </trkpt>
      <trkpt lat="45.92455" lon="6.21676">
        <ele>1025</ele>
        <time>2020-09-02T09:19:28+02:00</time>
      </trkpt>
      <trkpt lat="45.92435" lon="6.21691">
        <ele>1021</ele>
        <time>2020-09-02T09:19:28+02:00</time>
      </trkpt>
      <trkpt lat="45.92412" lon="6.21684">
        <ele>1017</ele>
        <time>2020-09-02T09:19:28+02:00</time>
      </trkpt>
      <trkpt lat="45.92387" lon="6.21682">
        <ele>1014</ele>
        <time>2020-09-02T09:19:28+02:00</time>
      </trkpt>
      <trkpt lat="45.92365" lon="6.21692">
        <ele>1005</ele>
        <time>2020-09-02T09:21:36+02:00</time>
      </trkpt>
      <trkpt lat="45.9234" lon="6.21698">
        <ele>1000</ele>
        <time>2020-09-02T09:21:36+02:00</time>
      </trkpt>
      <trkpt lat="45.92319" lon="6.21715">
        <ele>990</ele>
        <time>2020-09-02T09:21:36+02:00</time>
      </trkpt>
      <trkpt lat="45.92298" lon="6.21731">
        <ele>981</ele>
        <time>2020-09-02T09:21:36+02:00</time>
      </trkpt>
      <trkpt lat="45.92276" lon="6.21726">
        <ele>976</ele>
        <time>2020-09-02T09:21:36+02:00</time>
      </trkpt>
      <trkpt lat="45.92252" lon="6.21731">
        <ele>970</ele>
        <time>2020-09-02T09:21:36+02:00</time>
      </trkpt>
      <trkpt lat="45.92262" lon="6.2176">
        <ele>960</ele>
        <time>2020-09-02T09:21:36+02:00</time>
      </trkpt>
      <trkpt lat="45.92256" lon="6.21791">
        <ele>952</ele>
        <time>2020-09-02T09:21:36+02:00</time>
      </trkpt>
      <trkpt lat="45.92232" lon="6.21801">
        <ele>943</ele>
        <time>2020-09-02T09:21:36+02:00</time>
      </trkpt>
      <trkpt lat="45.92207" lon="6.21809">
        <ele>940</ele>
        <time>2020-09-02T09:21:36+02:00</time>
      </trkpt>
      <trkpt lat="45.92184" lon="6.21815">
        <ele>936</ele>
        <time>2020-09-02T09:21:36+02:00</time>
      </trkpt>
      <trkpt lat="45.9216" lon="6.21809">
        <ele>929</ele>
        <time>2020-09-02T09:23:44+02:00</time>
      </trkpt>
      <trkpt lat="45.92135" lon="6.21811">
        <ele>923</ele>
        <time>2020-09-02T09:23:44+02:00</time>
      </trkpt>
      <trkpt lat="45.92133" lon="6.21845">
        <ele>915</ele>
        <time>2020-09-02T09:23:44+02:00</time>
      </trkpt>
      <trkpt lat="45.92153" lon="6.21859">
        <ele>909</ele>
        <time>2020-09-02T09:23:44+02:00</time>
      </trkpt>
      <trkpt lat="45.92174" lon="6.21871">
        <ele>903</ele>
        <time>2020-09-02T09:23:44+02:00</time>
      </trkpt>
      <trkpt lat="45.92192" lon="6.21892">
        <ele>899</ele>
        <time>2020-09-02T09:23:44+02:00</time>
      </trkpt>
      <trkpt lat="45.92211" lon="6.21911">
        <ele>896</ele>
        <time>2020-09-02T09:23:44+02:00</time>
      </trkpt>
      <trkpt lat="45.92229" lon="6.21934">
        <ele>894</ele>
        <time>2020-09-02T09:23:44+02:00</time>
      </trkpt>
      <trkpt lat="45.9225" lon="6.2195">
        <ele>893</ele>
        <time>2020-09-02T09:23:44+02:00</time>
      </trkpt>
      <trkpt lat="45.92273" lon="6.21949">
        <ele>889</ele>
        <time>2020-09-02T09:23:44+02:00</time>
      </trkpt>
      <trkpt lat="45.92297" lon="6.21948">
        <ele>885</ele>
        <time>2020-09-02T09:23:44+02:00</time>
      </trkpt>
      <trkpt lat="45.92309" lon="6.21976">
        <ele>882</ele>
        <time>2020-09-02T09:23:44+02:00</time>
      </trkpt>
      <trkpt lat="45.9233" lon="6.21995">
        <ele>879</ele>
        <time>2020-09-02T09:23:44+02:00</time>
      </trkpt>
      <trkpt lat="45.92348" lon="6.2202">
        <ele>879</ele>
        <time>2020-09-02T09:25:52+02:00</time>
      </trkpt>
      <trkpt lat="45.92367" lon="6.22037">
        <ele>878</ele>
        <time>2020-09-02T09:25:52+02:00</time>
      </trkpt>
      <trkpt lat="45.9238" lon="6.22064">
        <ele>876</ele>
        <time>2020-09-02T09:25:52+02:00</time>
      </trkpt>
      <trkpt lat="45.9239" lon="6.22093">
        <ele>874</ele>
        <time>2020-09-02T09:25:52+02:00</time>
      </trkpt>
      <trkpt lat="45.92404" lon="6.22121">
        <ele>873</ele>
        <time>2020-09-02T09:25:52+02:00</time>
      </trkpt>
      <trkpt lat="45.92416" lon="6.2215">
        <ele>869</ele>
        <time>2020-09-02T09:25:52+02:00</time>
      </trkpt>
      <trkpt lat="45.92433" lon="6.22174">
        <ele>865</ele>
        <time>2020-09-02T09:25:52+02:00</time>
      </trkpt>
      <trkpt lat="45.92454" lon="6.22192">
        <ele>860</ele>
        <time>2020-09-02T09:25:52+02:00</time>
      </trkpt>
      <trkpt lat="45.92476" lon="6.22208">
        <ele>855</ele>
        <time>2020-09-02T09:25:52+02:00</time>
      </trkpt>
      <trkpt lat="45.92492" lon="6.22233">
        <ele>851</ele>
        <time>2020-09-02T09:25:52+02:00</time>
      </trkpt>
      <trkpt lat="45.92512" lon="6.22253">
        <ele>846</ele>
        <time>2020-09-02T09:25:52+02:00</time>
      </trkpt>
      <trkpt lat="45.92532" lon="6.2227">
        <ele>842</ele>
        <time>2020-09-02T09:25:52+02:00</time>
      </trkpt>
      <trkpt lat="45.92429" lon="6.22356">
        <ele>810</ele>
        <time>2020-09-02T09:30:08+02:00</time>
      </trkpt>
    </trkseg>
  </trk>
</gpx>